Find Lemur-2-Celijo-SB-PK

NORAD ID: 66781 Int'l Des: 2025-276 Owner: SPIRE/LACU Country: US Constellation: spire operational
LEOCIRCULARRETROGRADESSO

当前视图

正在加载3D地球...

关于 Lemur-2-Celijo-SB-PK

正在加载描述...

即将过境

Passes for default location (London). Set your location on the main map for personalized predictions.

高度历史

Loading altitude history...

两行轨道根数

1 66781U 25276DW 26146.15367349 .00008402 00000-0 68571-3 0 9991
2 66781 97.5281 217.6516 0008156 190.6749 169.4303 14.99642498 19323
Epoch: May 26, 2026 • Age: 10 hours

当前状态

高度 567.5 km
速度 7.58 km/s
星下点 -11.03°S, 59.74°W
发射日期 Nov 28, 2025
运行时间 0.4 years
类型 other

技术详情

分类 Payload
质量 5.00 kg
干质量 5.00 kg
总质量 5.00 kg
长度 0.40 m
直径 0.10 m
跨度 0.40 m
形状 Box
制造商 SPIREG
平台类型 Cubesat 4U
阶段状态 In Orbit
所有者/国家 SPIRE/LACU/US

Most Searched